TimeEST,TemperatureF,Dew PointF,Humidity,Sea Level PressureIn,VisibilityMPH,Wind Direction,Wind SpeedMPH,Gust SpeedMPH,PrecipitationIn,Events,Conditions,WindDirDegrees,DateUTC
12:14 AM,30.2,28.4,93,29.51,2.5,WSW,5.8,-,0.00,Snow,Light Snow,240,2012-12-19 05:14:00
12:31 AM,30.2,28.4,93,29.51,3.0,WSW,6.9,-,0.00,Snow,Light Snow,250,2012-12-19 05:31:00
12:38 AM,30.2,28.4,93,29.52,3.0,WSW,4.6,-,0.00,Snow,Light Snow,250,2012-12-19 05:38:00
12:51 AM,30.0,28.0,92,29.57,3.0,WSW,5.8,-,0.00,Snow,Light Snow,240,2012-12-19 05:51:00
1:00 AM,30.2,28.4,93,29.52,3.0,WSW,5.8,-,0.00,Snow,Light Snow,250,2012-12-19 06:00:00
1:08 AM,30.2,28.4,93,29.53,2.5,WSW,8.1,-,0.00,Snow,Light Snow,240,2012-12-19 06:08:00
1:15 AM,30.2,28.4,93,29.53,2.0,WSW,6.9,-,0.00,Snow,Light Snow,250,2012-12-19 06:15:00
1:26 AM,30.2,28.4,93,29.53,3.0,WSW,6.9,-,0.00,Snow,Light Snow,250,2012-12-19 06:26:00
1:44 AM,30.2,28.4,93,29.53,5.0,SW,4.6,-,0.00,Snow,Light Snow,230,2012-12-19 06:44:00
1:51 AM,30.0,28.0,92,29.58,4.0,SW,4.6,-,0.00,Snow,Light Snow,230,2012-12-19 06:51:00
2:51 AM,30.0,28.9,96,29.60,10.0,SW,3.5,-,0.00,,Overcast,230,2012-12-19 07:51:00
3:28 AM,30.2,28.4,93,29.56,2.5,Calm,Calm,-,0.00,Snow,Light Snow,0,2012-12-19 08:28:00
3:51 AM,30.0,28.9,96,29.61,3.0,WSW,3.5,-,0.00,Snow,Light Snow,240,2012-12-19 08:51:00
4:49 AM,30.2,28.4,93,29.58,7.0,West,5.8,-,0.00,,Overcast,260,2012-12-19 09:49:00
4:51 AM,30.0,28.0,92,29.63,7.0,WSW,6.9,-,0.00,,Overcast,250,2012-12-19 09:51:00
5:33 AM,30.2,28.4,93,29.60,10.0,West,5.8,-,0.00,,Overcast,270,2012-12-19 10:33:00
5:51 AM,30.0,27.0,88,29.65,9.0,Variable,5.8,-,0.00,,Overcast,0,2012-12-19 10:51:00
6:01 AM,30.2,28.4,93,29.61,7.0,West,4.6,-,N/A,,Overcast,280,2012-12-19 11:01:00
6:51 AM,30.0,28.0,92,29.69,5.0,Calm,Calm,-,N/A,,Overcast,0,2012-12-19 11:51:00
7:51 AM,30.0,28.0,92,29.71,6.0,West,4.6,-,N/A,,Overcast,260,2012-12-19 12:51:00
8:51 AM,30.0,28.0,92,29.73,2.5,Variable,5.8,-,0.00,Snow,Light Snow,0,2012-12-19 13:51:00
9:09 AM,30.2,28.4,93,29.69,1.8,West,5.8,-,0.00,Snow,Light Snow,280,2012-12-19 14:09:00
9:26 AM,30.2,28.4,93,29.70,2.5,Variable,5.8,-,0.00,Snow,Light Snow,0,2012-12-19 14:26:00
9:37 AM,30.2,28.4,93,29.70,3.0,West,4.6,-,0.00,Snow,Light Snow,280,2012-12-19 14:37:00
9:48 AM,30.2,28.4,93,29.71,1.8,Calm,Calm,-,0.00,Snow,Light Snow,0,2012-12-19 14:48:00
9:49 AM,30.0,28.9,96,29.76,1.5,Calm,Calm,-,0.00,Snow,Light Snow,0,2012-12-19 14:49:00
10:06 AM,30.2,28.4,93,29.71,3.0,Variable,4.6,-,0.00,Snow,Light Snow,0,2012-12-19 15:06:00
10:51 AM,30.9,28.0,89,29.78,3.0,Variable,5.8,-,0.00,Snow,Light Snow,0,2012-12-19 15:51:00
11:51 AM,30.9,28.0,89,29.80,3.0,WNW,6.9,-,0.00,Snow,Light Snow,290,2012-12-19 16:51:00
11:57 AM,30.2,28.4,93,29.75,1.8,WNW,4.6,-,0.00,Snow,Light Snow,300,2012-12-19 16:57:00
12:03 PM,30.2,28.4,93,29.75,0.8,Calm,Calm,-,0.00,Snow,Light Snow,0,2012-12-19 17:03:00
12:17 PM,30.2,28.4,93,29.76,1.5,Variable,5.8,-,0.00,Snow,Light Snow,0,2012-12-19 17:17:00
12:22 PM,30.2,28.4,93,29.76,3.0,Variable,5.8,-,0.00,Snow,Light Snow,0,2012-12-19 17:22:00
12:34 PM,30.2,28.4,93,29.76,2.5,WNW,8.1,-,0.00,Snow,Light Snow,290,2012-12-19 17:34:00
12:43 PM,30.2,28.4,93,29.77,1.2,Variable,6.9,-,0.00,Snow,Light Snow,0,2012-12-19 17:43:00
12:51 PM,30.9,28.9,92,29.83,1.2,Variable,3.5,-,0.00,Snow,Light Snow,0,2012-12-19 17:51:00
1:03 PM,30.2,28.4,93,29.78,1.2,WNW,5.8,-,0.00,Snow,Light Snow,290,2012-12-19 18:03:00
1:14 PM,30.2,28.4,93,29.78,0.8,Variable,4.6,-,0.00,Snow,Light Snow,0,2012-12-19 18:14:00
1:24 PM,30.2,28.4,93,29.79,1.0,Variable,4.6,-,0.00,Snow,Light Snow,0,2012-12-19 18:24:00
1:32 PM,30.2,28.4,93,29.79,3.0,Variable,4.6,-,0.00,Snow,Light Snow,0,2012-12-19 18:32:00
1:36 PM,30.2,28.4,93,29.79,6.0,Variable,4.6,-,0.00,,Overcast,0,2012-12-19 18:36:00
1:51 PM,30.9,28.0,89,29.86,7.0,WNW,9.2,-,0.00,,Overcast,290,2012-12-19 18:51:00
2:51 PM,30.9,27.0,85,29.89,10.0,Variable,5.8,-,0.00,,Overcast,0,2012-12-19 19:51:00
3:09 PM,30.2,28.4,93,29.85,1.8,West,4.6,-,0.00,Snow,Light Snow,280,2012-12-19 20:09:00
3:16 PM,30.2,28.4,93,29.86,2.0,Variable,5.8,-,0.00,Snow,Light Snow,0,2012-12-19 20:16:00
3:27 PM,30.2,28.4,93,29.87,1.2,WNW,5.8,-,0.00,Snow,Light Snow,290,2012-12-19 20:27:00
3:31 PM,30.2,28.4,93,29.87,0.8,West,6.9,-,0.00,Snow,Light Snow,280,2012-12-19 20:31:00
3:39 PM,30.2,26.6,86,29.87,1.8,WNW,9.2,18.4,0.00,Snow,Light Snow,290,2012-12-19 20:39:00
3:41 PM,30.2,26.6,86,29.87,3.0,Variable,5.8,18.4,0.00,Snow,Light Snow,0,2012-12-19 20:41:00
3:49 PM,30.2,26.6,86,29.87,2.0,Variable,4.6,-,0.00,Snow,Light Snow,0,2012-12-19 20:49:00
3:51 PM,30.0,27.0,88,29.94,1.8,West,4.6,-,0.00,Snow,Light Snow,270,2012-12-19 20:51:00
4:07 PM,28.4,26.6,93,29.88,1.0,WSW,8.1,-,0.00,Snow,Light Snow,250,2012-12-19 21:07:00
4:18 PM,30.2,26.6,86,29.89,3.0,West,6.9,-,0.00,Snow,Light Snow,260,2012-12-19 21:18:00
4:51 PM,28.9,27.0,92,29.96,8.0,Variable,4.6,-,0.00,,Overcast,0,2012-12-19 21:51:00
5:51 PM,28.9,26.1,89,30.00,3.0,Variable,3.5,-,0.00,Snow,Light Snow,0,2012-12-19 22:51:00
6:00 PM,28.4,26.6,93,29.94,1.8,Variable,5.8,-,0.00,Snow,Light Snow,0,2012-12-19 23:00:00
6:11 PM,28.4,26.6,93,29.95,1.2,Variable,5.8,-,0.00,Snow,Light Snow,0,2012-12-19 23:11:00
6:24 PM,28.4,26.6,93,29.96,2.5,WNW,5.8,-,0.00,Snow,Light Snow,300,2012-12-19 23:24:00
6:31 PM,28.4,26.6,93,29.96,4.0,Variable,5.8,-,0.00,,Overcast,0,2012-12-19 23:31:00
6:51 PM,28.0,26.1,92,30.04,4.0,West,8.1,-,0.00,,Overcast,280,2012-12-19 23:51:00
7:51 PM,27.0,25.0,92,30.06,4.0,WNW,8.1,-,N/A,,Overcast,300,2012-12-20 00:51:00
8:51 PM,27.0,25.0,92,30.08,4.0,WNW,6.9,-,N/A,,Overcast,300,2012-12-20 01:51:00
9:10 PM,26.6,24.8,93,30.02,2.5,Variable,5.8,-,0.00,Snow,Light Snow,0,2012-12-20 02:10:00
9:18 PM,26.6,24.8,93,30.02,3.0,Calm,Calm,-,0.00,,Overcast,0,2012-12-20 02:18:00
9:27 PM,26.6,24.8,93,30.02,2.0,Calm,Calm,-,0.00,Snow,Light Snow,0,2012-12-20 02:27:00
9:43 PM,26.6,24.8,93,30.02,4.0,Variable,5.8,-,0.01,,Overcast,0,2012-12-20 02:43:00
9:51 PM,26.1,25.0,96,30.09,4.0,NW,5.8,-,0.01,,Overcast,320,2012-12-20 02:51:00
10:51 PM,26.1,24.1,92,30.12,8.0,Variable,4.6,-,N/A,,Overcast,0,2012-12-20 03:51:00
11:51 PM,26.1,24.1,92,30.13,10.0,West,4.6,-,N/A,,Overcast,270,2012-12-20 04:51:00